Location: Enborne
(51.3833°N, 1.3667°W)
Time: 21:23:29
(UTC+00:00)

MetOp-A - Visible Passes

Search period start: 28 November 2021 00:00
Search period end: 08 December 2021 00:00
Orbit: 562 x 812 km, 98.5° (Epoch: 28 November)

Date Brightness Start Highest point End Pass type
(mag) Time Alt. Az. Time Alt. Az. Time Alt. Az.
28 Nov 6.9 06:57:27 10° NE 07:00:40 16° E 07:03:49 10° ESE visible
28 Nov 5.0 18:10:47 28° NE 18:10:47 28° NE 18:14:25 10° N visible
28 Nov 5.6 19:49:21 29° NW 19:49:21 29° NW 19:52:07 10° NNW visible
29 Nov 5.7 17:10:42 13° NE 17:11:16 13° NE 17:13:30 10° NNE visible
29 Nov 4.8 18:49:15 39° NNE 18:49:15 39° NNE 18:52:44 10° N visible
29 Nov 6.5 20:27:49 18° NW 20:27:49 18° NW 20:29:38 10° NW visible
30 Nov 7.4 06:38:15 10° ENE 06:38:49 10° E 06:39:23 10° E visible
30 Nov 5.3 17:49:10 22° NE 17:49:10 22° NE 17:52:40 10° N visible
30 Nov 5.2 19:27:44 35° NNW 19:27:44 35° NNW 19:30:48 10° NNW visible
01 Dec 4.9 18:27:38 33° NNE 18:27:38 33° NNE 18:31:10 10° N visible
01 Dec 6.0 20:06:11 24° NW 20:06:11 24° NW 20:08:34 10° NNW visible
02 Dec 5.5 17:27:32 16° NE 17:27:32 16° NE 17:30:44 10° NNE visible
02 Dec 5.0 19:06:06 38° N 19:06:06 38° N 19:09:22 10° NNW visible
02 Dec 6.8 20:44:40 14° NW 20:44:40 14° NW 20:45:49 10° NW visible
03 Dec 6.9 06:52:59 10° NE 06:55:38 14° E 06:58:14 10° ESE visible
03 Dec 5.1 18:06:00 27° NE 18:06:00 27° NE 18:09:31 10° N visible
03 Dec 5.6 19:44:34 30° NW 19:44:34 30° NW 19:47:20 10° NNW visible
04 Dec 5.8 17:05:54 12° NE 17:06:27 12° NE 17:08:25 10° NNE visible
04 Dec 4.9 18:44:28 36° NNE 18:44:28 36° NNE 18:47:52 10° N visible
04 Dec 6.4 20:23:02 19° NW 20:23:02 19° NW 20:24:55 10° NNW visible
05 Dec 5.4 17:44:22 21° NE 17:44:22 21° NE 17:47:43 10° N visible
05 Dec 5.2 19:22:56 35° NNW 19:22:56 35° NNW 19:25:58 10° NNW visible
05 Dec 7.0 21:01:30 11° NW 21:01:30 11° NW 21:01:44 10° NW visible
06 Dec 6.7 07:08:51 10° NE 07:12:24 18° E 07:15:48 10° SE visible
06 Dec 5.0 18:22:50 31° NNE 18:22:50 31° NNE 18:26:16 10° N visible
06 Dec 6.0 20:01:24 24° NW 20:01:24 24° NW 20:03:47 10° NNW visible
07 Dec 5.6 17:22:44 15° NE 17:22:44 15° NE 17:25:42 10° NNE visible
07 Dec 5.0 19:01:18 36° N 19:01:18 36° N 19:04:30 10° N visible
07 Dec 6.7 20:39:52 15° NW 20:39:52 15° NW 20:41:08 10° NW visible
